Regional Weather Roundup
Issued by NWS Nashville, TN

Home | Current Version | Previous Version | Text Only | Print | Product List | Glossary On
Versions: 1 2 3 4 5 6 7 8 9 10 11 12 13 14 15 16 17 18 19 20 21 22 23 24 25 26 27 28 29 30 31 32 33 34 35 36 37 38 39 40 41 42 43 44 45 46 47 48 49
000
ASUS44 KOHX 280910
RWROHX
MIDDLE TENNESSEE HOURLY WEATHER ROUNDUP
NATIONAL WEATHER SERVICE NASHVILLE TN
400 AM CDT FRI AUG 28 2015

NOTE: "FAIR" INDICATES FEW OR NO CLOUDS BELOW 12,000 FEET WITH
NO SIGNIFICANT WEATHER AND/OR OBSTRUCTIONS TO VISIBILITY.

* THESE REPORTS ARE NOT UNDER NWS QUALITY CONTROL AND MAY NOT
  REPORT WEATHER SUCH AS PRECIPITATION AND FOG.


TNZ005>011-023>034-057-059-062>066-078-080-281000
...NORTHERN MIDDLE TENNESSEE...

CITY           SKY/WX    TMP DP  RH WIND       PRES   REMARKS
CLARKSVILLE    CLEAR     59  55  87 CALM      30.09S
CROSSVILLE     CLEAR     59  55  87 CALM      30.14R
DICKSON        CLEAR     61  55  82 NE3       30.08S
LIVINGSTON     CLEAR     63  55  75 CALM      30.12
NASHVILLE      PTCLDY    63  56  78 CALM      30.09R
SMYRNA         CLEAR     58  57  96 CALM      30.10R
$$
TNZ056-058-060-061-075>077-079-093>097-281000
...SOUTHERN MIDDLE TENNESSEE...

CITY           SKY/WX    TMP DP  RH WIND       PRES   REMARKS
COLUMBIA       CLEAR     59  59 100 CALM      30.06S
LEWISBURG      CLEAR     57  55  93 CALM      30.07S
MCMINNVILLE    CLEAR     61  61 100 NE3       30.10R
SHELBYVILLE    CLEAR     61  59  94 CALM      30.09R
TULLAHOMA      CLEAR     63  57  82 CALM      30.09S
WINCHESTER     CLEAR     61  59  94 CALM      30.09R
$$


...KEY TO REMARKS...
VSB - VISIBILITY IN MILES
WCI - WIND CHILL INDEX
HX  - HEAT INDEX



USA.gov is the U.S. government's official web portal to all federal, state and local government web resources and services.